sat.trackr.live / text

‹ back to catalog

STARLINK-36486

NORAD 67335 · 2026-003B

PAYLOAD ACTIVE UNKNOWN

§ Identity

Operator
Country
US
Launch date
2026-01-09
Launch site
AFETR
Launch vehicle
Mass (kg)
RCS (m²)

Purposes: comms

External: N2YO · Heavens-Above · Gunter

§ Orbital elements

Epoch: 2026-05-24T07:43:25.101120Z

Period
94.27 min
Inclination
43.0005°
Eccentricity
0.0001510
Mean motion
15.27589175 rev/d
Perigee alt
482.0 km
Apogee alt
484.1 km
Semi-major
6,861.2 km
B*
4.6866e-4
RAAN
159.6936°
Arg perigee
269.6953°
Mean anomaly
90.3726°
Rev number
2,039

§ Raw data

STARLINK-364861 67335U 26003B   26144.32181830  .00012660  00000+0  46866-3 0  99952 67335  43.0005 159.6936 0001510 269.6953  90.3726 15.27589175 20395

JSON: /api/v1/satellites/67335 · /tle

For live sub-satellite position, see the globe view (requires WebGL).

§ Visibility from observer

Set your observer location to see the next 7 days of passes ≥ 10°. The values pass through the URL so the page stays shareable.

No JS? Fill the form by hand. The geolocation button needs JavaScript.